TimeCST,TemperatureF,Dew PointF,Humidity,Sea Level PressureIn,VisibilityMPH,Wind Direction,Wind SpeedMPH,Gust SpeedMPH,PrecipitationIn,Events,Conditions,WindDirDegrees,DateUTC
12:15 AM,-0.4,-7.6,72,30.32,10.0,WNW,12.7,18.4,N/A,,Partly Cloudy,300,2013-01-21 06:15:00
12:35 AM,-0.4,-7.6,72,30.32,10.0,WNW,17.3,-,N/A,,Clear,300,2013-01-21 06:35:00
12:55 AM,-0.4,-7.6,72,30.31,10.0,WNW,16.1,-,N/A,,Clear,290,2013-01-21 06:55:00
1:15 AM,-0.4,-7.6,72,30.31,10.0,WNW,15.0,20.7,N/A,,Clear,290,2013-01-21 07:15:00
1:35 AM,-0.4,-7.6,72,30.31,10.0,WNW,13.8,-,N/A,,Clear,300,2013-01-21 07:35:00
1:55 AM,-0.4,-7.6,72,30.32,10.0,WNW,19.6,-,N/A,,Mostly Cloudy,300,2013-01-21 07:55:00
2:15 AM,-0.4,-7.6,72,30.32,10.0,NW,16.1,23.0,N/A,,Scattered Clouds,310,2013-01-21 08:15:00
2:35 AM,-0.4,-7.6,72,30.32,8.0,NW,18.4,26.5,N/A,,Mostly Cloudy,310,2013-01-21 08:35:00
2:55 AM,-0.4,-9.4,66,30.33,4.0,NW,19.6,32.2,N/A,,Freezing Rain,320,2013-01-21 08:55:00
3:15 AM,-2.2,-11.2,66,30.33,8.0,NW,24.2,33.4,N/A,,Scattered Clouds,320,2013-01-21 09:15:00
3:35 AM,-2.2,-11.2,66,30.32,10.0,NNW,25.3,-,N/A,,Scattered Clouds,330,2013-01-21 09:35:00
3:55 AM,-2.2,-9.4,71,30.33,2.5,NW,21.9,28.8,N/A,,Freezing Rain,310,2013-01-21 09:55:00
4:15 AM,-4.0,-13.0,65,30.33,9.0,NW,26.5,33.4,N/A,,Overcast,320,2013-01-21 10:15:00
4:55 AM,-5.8,-16.6,60,30.33,10.0,NW,20.7,27.6,N/A,,Partly Cloudy,320,2013-01-21 10:55:00
5:15 AM,-7.6,-16.6,65,30.33,-9999.0,NW,13.8,20.7,N/A,,Clear,320,2013-01-21 11:15:00
5:35 AM,-7.6,-16.6,65,30.34,10.0,NW,15.0,-,N/A,,Clear,310,2013-01-21 11:35:00
5:55 AM,-7.6,-16.6,65,30.34,10.0,NW,11.5,-,N/A,,Clear,320,2013-01-21 11:55:00
6:15 AM,-7.6,-16.6,65,30.34,10.0,NW,13.8,-,N/A,,Clear,310,2013-01-21 12:15:00
6:35 AM,-7.6,-16.6,65,30.34,10.0,WNW,15.0,-,N/A,,Partly Cloudy,300,2013-01-21 12:35:00
6:55 AM,-7.6,-14.8,71,30.33,10.0,NW,16.1,-,N/A,,Scattered Clouds,310,2013-01-21 12:55:00
7:15 AM,-7.6,-16.6,65,30.33,10.0,WNW,13.8,-,N/A,,Partly Cloudy,300,2013-01-21 13:15:00
7:35 AM,-7.6,-16.6,65,30.32,10.0,WNW,13.8,-,N/A,,Mostly Cloudy,300,2013-01-21 13:35:00
7:55 AM,-9.4,-16.6,71,30.33,10.0,WNW,11.5,-,N/A,,Partly Cloudy,300,2013-01-21 13:55:00
8:15 AM,-7.6,-16.6,65,30.34,10.0,WNW,10.4,-,N/A,,Clear,290,2013-01-21 14:15:00
8:35 AM,-7.6,-14.8,71,30.33,10.0,NW,15.0,-,N/A,,Clear,310,2013-01-21 14:35:00
8:55 AM,-5.8,-14.8,65,30.34,10.0,NW,18.4,25.3,N/A,,Clear,310,2013-01-21 14:55:00
9:15 AM,-5.8,-14.8,65,30.35,10.0,WNW,19.6,-,N/A,,Clear,300,2013-01-21 15:15:00
9:35 AM,-4.0,-14.8,60,30.36,10.0,WNW,18.4,26.5,N/A,,Clear,300,2013-01-21 15:35:00
9:55 AM,-4.0,-13.0,65,30.36,10.0,WNW,20.7,-,N/A,,Clear,300,2013-01-21 15:55:00
10:15 AM,-4.0,-13.0,65,30.36,10.0,NW,18.4,26.5,N/A,,Clear,310,2013-01-21 16:15:00
10:35 AM,-4.0,-13.0,65,30.36,10.0,WNW,16.1,24.2,N/A,,Clear,300,2013-01-21 16:35:00
10:55 AM,-2.2,-13.0,60,30.36,10.0,WNW,16.1,23.0,N/A,,Clear,300,2013-01-21 16:55:00
11:15 AM,-2.2,-11.2,66,30.36,10.0,WNW,16.1,-,N/A,,Clear,300,2013-01-21 17:15:00
11:35 AM,-2.2,-11.2,66,30.35,10.0,NW,15.0,21.9,N/A,,Clear,310,2013-01-21 17:35:00
11:55 AM,-0.4,-11.2,60,30.34,10.0,NW,18.4,25.3,N/A,,Clear,310,2013-01-21 17:55:00
12:15 PM,-0.4,-9.4,66,30.33,10.0,WNW,17.3,-,N/A,,Clear,300,2013-01-21 18:15:00
12:35 PM,-0.4,-11.2,60,30.31,10.0,WNW,17.3,26.5,N/A,,Clear,300,2013-01-21 18:35:00
12:55 PM,-0.4,-9.4,66,30.31,10.0,WNW,21.9,-,N/A,,Clear,300,2013-01-21 18:55:00
1:15 PM,1.4,-7.6,66,30.31,10.0,WNW,19.6,-,N/A,,Clear,290,2013-01-21 19:15:00
1:35 PM,1.4,-7.6,66,30.30,10.0,WNW,23.0,-,N/A,,Clear,290,2013-01-21 19:35:00
1:55 PM,1.4,-7.6,66,30.30,10.0,WNW,21.9,-,N/A,,Partly Cloudy,300,2013-01-21 19:55:00
2:15 PM,1.4,-7.6,66,30.30,10.0,WNW,20.7,-,N/A,,Partly Cloudy,290,2013-01-21 20:15:00
2:35 PM,1.4,-7.6,66,30.29,10.0,WNW,21.9,-,N/A,,Partly Cloudy,290,2013-01-21 20:35:00
2:55 PM,1.4,-7.6,66,30.29,10.0,WNW,20.7,27.6,N/A,,Partly Cloudy,300,2013-01-21 20:55:00
3:15 PM,3.2,-7.6,61,30.29,10.0,WNW,18.4,-,N/A,,Clear,300,2013-01-21 21:15:00
3:35 PM,1.4,-7.6,66,30.29,10.0,WNW,20.7,-,N/A,,Clear,300,2013-01-21 21:35:00
3:55 PM,1.4,-7.6,66,30.29,10.0,WNW,19.6,25.3,N/A,,Clear,300,2013-01-21 21:55:00
4:15 PM,1.4,-7.6,66,30.30,10.0,WNW,17.3,-,N/A,,Clear,300,2013-01-21 22:15:00
4:35 PM,-0.4,-7.6,72,30.29,10.0,WNW,13.8,-,N/A,,Clear,290,2013-01-21 22:35:00
4:55 PM,-0.4,-9.4,66,30.29,10.0,WNW,12.7,-,N/A,,Clear,290,2013-01-21 22:55:00
5:15 PM,-0.4,-9.4,66,30.30,10.0,WNW,12.7,-,N/A,,Clear,290,2013-01-21 23:15:00
5:35 PM,-2.2,-9.4,71,30.29,10.0,WNW,10.4,-,N/A,,Clear,290,2013-01-21 23:35:00
5:55 PM,-2.2,-11.2,66,30.29,10.0,West,10.4,-,N/A,,Clear,280,2013-01-21 23:55:00
6:15 PM,-4.0,-11.2,71,30.30,10.0,West,9.2,-,N/A,,Clear,280,2013-01-22 00:15:00
6:35 PM,-4.0,-11.2,71,30.29,10.0,WNW,10.4,-,N/A,,Clear,290,2013-01-22 00:35:00
6:55 PM,-4.0,-11.2,71,30.29,10.0,WNW,11.5,-,N/A,,Clear,290,2013-01-22 00:55:00
7:15 PM,-4.0,-11.2,71,30.29,10.0,WNW,12.7,-,N/A,,Clear,290,2013-01-22 01:15:00
7:35 PM,-4.0,-11.2,71,30.29,10.0,West,11.5,-,N/A,,Clear,280,2013-01-22 01:35:00
7:55 PM,-5.8,-11.2,77,30.29,10.0,WNW,11.5,-,N/A,,Clear,290,2013-01-22 01:55:00
8:15 PM,-4.0,-11.2,71,30.30,10.0,WNW,9.2,-,N/A,,Clear,290,2013-01-22 02:15:00
8:35 PM,-4.0,-11.2,71,30.30,10.0,WNW,10.4,-,N/A,,Clear,290,2013-01-22 02:35:00
8:55 PM,-2.2,-9.4,71,30.29,10.0,WNW,11.5,-,N/A,,Clear,300,2013-01-22 02:55:00
9:15 PM,-4.0,-11.2,71,30.30,10.0,WNW,11.5,-,N/A,,Clear,290,2013-01-22 03:15:00
9:35 PM,-4.0,-11.2,71,30.30,10.0,WNW,10.4,-,N/A,,Clear,290,2013-01-22 03:35:00
9:55 PM,-2.2,-9.4,71,30.30,10.0,WNW,10.4,-,N/A,,Clear,300,2013-01-22 03:55:00
10:15 PM,-2.2,-9.4,71,30.29,10.0,WNW,9.2,-,N/A,,Clear,290,2013-01-22 04:15:00
10:35 PM,-2.2,-9.4,71,30.30,10.0,West,8.1,-,N/A,,Clear,270,2013-01-22 04:35:00
10:55 PM,-2.2,-9.4,71,30.30,10.0,West,8.1,-,N/A,,Clear,270,2013-01-22 04:55:00
11:15 PM,-2.2,-7.6,78,30.30,10.0,West,6.9,-,N/A,,Clear,280,2013-01-22 05:15:00
11:35 PM,-2.2,-7.6,78,30.30,10.0,West,8.1,-,N/A,,Clear,280,2013-01-22 05:35:00
11:55 PM,-0.4,-7.6,72,30.29,10.0,West,6.9,-,N/A,,Scattered Clouds,280,2013-01-22 05:55:00